Погода в Батерсте

Австралия     33°24′40″S   149°34′43″E
темп.,
°C
ветер,
м/с
пор.,
м/с
влажн.,
%
обл.,
%
осадки,
мм/ч
давл.,
гПа
погр.,
м
12 апреля, пн
пн1201:00+3юз37842 0.0 1020196
04:000юз23930 0.0 102152
07:00+1ю23890 0.0 102276
10:00+10ю23450 0.0 1020732
13:00+15юз12290 0.0 10171423
16:00+15зюз22320 0.0 10171529
19:00+7ююз33610 0.0 102136
22:00+5ююв22700 0.0 102312
13 апреля, вт
вт1301:00+3юв11790 0.0 102410
04:00+2вюв11851 0.0 102310
07:00+3юв11835 0.0 102511
10:00+12ссв235355 0.0 1022466
13:00+17сз34365 0.0 10191287
16:00+16сз44408 0.0 10171237
19:00+9зсз225923 0.0 102018
22:00+7сз116134 0.0 102112
14 апреля, ср
ср1401:00+6сз11665 0.0 102011
04:00+5сз11665 0.0 101915
07:00+6ссз12653 0.0 101928
10:00+17сз710373 0.0 1017910
13:00+20зсз811285 0.0 10141589
16:00+18з7103659 0.0 10141418
19:00+14зюз4113372 0.0 1016396
22:00+9юз234956 0.0 101853
15 апреля, чт
чт1501:00+7юз11735 0.0 101811
04:00+6зюз11825 0.0 101711
07:00+6ю11815 0.0 101912
10:00+15зюз45471 0.0 10171013
13:00+18зюз67360 0.0 10151447
16:00+16зюз67425 0.0 10141585
19:00+9зюз346760 0.0 101758
22:00+7юз3474100 0.0 101962
16 апреля, пт
пт1601:00+5юз2380100 0.0 101942
04:00+5ююз2286100 0.0 102022
07:00+6ю2280100 0.0 102228
10:00+13в3553100 0.0 1021790
13:00+17в5550100 0.0 10191663
16:00+13в4669100 0.1 1020469
19:00+11в3777100 0.0 1022414
22:00+10в3883100 0.1 1023427